Wetbulb
29.72 30.31 29.05 28.89 29.24 30.45 25.76 30.01 27.78 30.71 29.43 35.29 37.74 38.42 40.15 41.00 41.66 41.92 42.41 42.55 43.06 43.27 43.84 44.79 45.17 45.86 45.95 45.61 46.62 49.80 50.56 49.35 50.74 52.34 52.95 53.17 52.97 53.35 53.69 53.87 54.64 56.04 57.24 57.67
24.01 28.82 29.12 27.33 31.00 31.20 30.92 30.33 29.82 30.91 31.09 38.51 39.64 39.86 40.56 40.79 40.66 40.94 41.61 42.07 42.60 42.95 43.50 43.45 44.09 44.74 45.85 45.83 46.27 48.13 48.20 48.73 50.10 52.01 52.18 51.46 50.99 50.99 51.53 51.41 51.85 51.98 52.18 52.88
25.98 26.32 24.29 24.47 29.08 30.35 32.46 33.29 32.98 29.22 35.32 38.09 38.49 39.51 40.47 41.04 41.34 40.99 41.53 41.90 42.10 42.40 42.79 42.98 43.00 43.94 44.64 45.65 46.82 46.64 46.57 47.03 48.15 49.07 49.35 50.07 50.95 51.04 51.02 51.00 51.55 50.66 50.02 50.28
26.28 24.06 24.07 30.44 34.45 34.09 33.27 34.44 35.46 35.37 36.62 37.86 39.44 41.03 41.95 43.18 42.66 42.47 42.38 42.22 42.44 43.24 43.29 43.06 43.59 44.27 45.06 45.56 46.06 46.18 45.85 45.82 46.34 47.28 47.80 48.39 48.63 48.37 48.38 48.71 49.21 49.48 49.09 49.30
24.63 25.73 29.92 29.63 29.90 31.98 32.34 33.04 37.33 36.04 37.63 38.48 39.46 40.31 40.90 43.77 44.06 44.05 44.08 43.97 43.77 43.87 43.62 43.59 43.22 43.45 44.34 44.62 45.45 45.44 44.98 45.30 45.93 46.61 46.49 46.99 46.72 46.75 47.18 44.01 45.29 47.45 47.66 47.94
24.74 22.60 25.11 31.68 34.84 37.89 36.91 30.36 38.14 37.23 37.78 37.55 38.44 34.87 39.42 42.11 43.88 43.86 44.33 44.15 43.71 43.89 43.62 43.68 43.72 43.68 43.91 43.84 44.48 43.49 43.66 44.51 45.64 46.21 46.24 45.92 46.00 45.73 46.00 46.35 45.84 46.80 46.29 46.80
26.69 26.14 30.07 33.67 36.42 37.81 28.62 33.58 37.09 38.32 39.11 37.94 37.16 40.71 41.07 41.51 42.63 44.32 44.56 43.34 43.85 43.34 43.70 43.73 43.18 43.03 42.65 43.01 42.52 42.83 44.13 44.97 45.28 45.90 45.47 45.51 45.70 45.57 45.82 46.02 46.25 46.13 46.13 46.63
25.65 23.90 25.41 34.82 35.09 32.47 38.53 35.79 38.87 38.69 39.93 39.19 40.93 41.74 41.37 41.85 42.36 42.76 42.15 41.76 43.14 42.83 42.79 43.20 42.63 42.35 41.87 41.73 41.57 42.94 44.01 44.13 44.37 44.87 44.43 45.03 45.76 45.47 45.37 45.51 45.39 45.01 45.07 45.36
32.21 34.60 35.64 38.39 40.33 40.91 38.07 39.91 38.68 40.32 40.84 40.49 40.73 40.96 41.49 41.31 42.25 42.28 41.89 41.47 42.17 42.34 42.10 42.51 42.54 42.38 41.79 41.19 41.27 41.99 42.97 43.17 43.32 43.71 43.73 44.00 44.17 43.95 44.24 44.03 43.11 42.23 41.55 41.01
32.48 37.79 36.05 36.07 38.87 40.02 40.15 38.58 40.34 41.48 41.91 41.00 40.16 41.13 41.24 41.54 41.71 41.76 41.80 40.99 41.05 40.74 40.75 41.35 42.16 41.55 42.28 41.17 40.91 41.27 41.55 41.49 42.15 42.58 42.44 42.74 43.24 42.84 42.91 42.54 41.86 41.20 40.64 40.24
32.22 36.11 36.40 37.87 37.76 39.27 39.91 39.58 39.40 39.76 40.70 40.84 40.84 41.09 41.45 41.26 41.30 41.55 41.26 40.53 39.98 39.48 39.63 40.56 41.97 41.55 42.05 40.99 40.70 40.55 40.61 40.71 41.35 41.72 41.49 41.72 41.87 41.84 41.54 42.41 41.09 39.82 40.38 40.20
33.81 40.52 39.42 40.65 42.25 40.87 39.06 38.28 38.45 38.43 38.04 39.56 41.15 41.13 41.86 41.42 41.95 41.23 40.11 39.62 38.57 38.79 38.91 39.70 40.74 41.30 41.39 40.92 40.51 40.75 40.38 40.71 41.12 41.28 41.41 40.97 40.54 40.36 39.22 38.94 38.18 38.56 38.58 37.66
37.78 41.15 41.42 41.45 40.83 39.96 38.70 39.88 39.63 38.73 39.11 38.75 39.34 40.14 41.34 40.82 41.49 40.66 40.07 39.03 38.22 38.30 38.83 39.63 40.29 40.80 41.42 40.83 40.41 39.85 40.01 39.60 39.30 39.11 39.45 38.92 38.89 37.44 35.39 37.99 36.16 36.24 35.40 35.16
40.14 39.89 37.56 39.02 37.47 40.18 39.07 39.33 39.19 38.70 38.70 38.67 39.15 39.35 39.90 39.69 39.99 39.01 38.78 38.93 38.71 38.60 38.66 39.51 40.25 40.57 41.64 40.98 40.48 40.17 38.86 37.57 38.42 39.48 38.62 37.57 37.65 35.82 35.35 33.25 32.47 33.69 34.75 34.07
38.90 39.04 38.56 40.39 40.50 39.73 39.42 37.77 36.24 36.89 38.53 38.23 38.16 38.36 38.13 38.07 38.03 38.53 38.89 38.66 38.32 38.75 39.85 40.29 39.89 39.93 40.72 40.65 39.68 39.25 38.14 38.56 38.46 38.08 36.46 36.24 35.67 34.00 33.03 32.50 32.14 32.25 33.26 33.86
38.07 39.33 39.22 36.83 36.28 36.95 37.53 36.10 35.38 36.95 37.90 38.40 38.23 37.56 38.40 39.11 39.63 38.34 38.12 38.10 37.13 37.69 39.43 39.80 40.00 39.95 37.91 37.23 36.89 36.46 36.52 36.13 35.73 35.06 34.91 34.52 33.04 32.11 31.74 31.44 31.19 31.47 31.62 31.77
33.95 33.93 34.68 34.43 34.78 35.90 36.61 36.15 36.70 37.24 38.01 37.74 38.08 38.73 37.97 37.72 37.68 36.96 37.03 37.78 38.44 39.07 39.64 39.70 39.13 37.12 36.21 35.86 35.45 35.64 35.62 35.58 33.67 32.32 32.79 32.76 31.94 31.32 31.24 30.73 30.64 30.72 31.05 31.85
37.28 38.33 39.00 38.29 37.35 36.47 35.27 35.35 35.72 36.34 36.27 37.52 37.91 37.53 36.67 36.25 36.49 36.94 37.12 37.68 37.39 37.11 37.92 38.61 36.97 35.69 35.43 36.17 35.94 35.72 34.18 33.10 32.38 31.45 31.70 31.64 31.45 31.33 31.10 30.46 30.21 30.13 30.64 30.91
38.24 37.00 37.05 36.34 36.74 36.10 35.83 35.77 35.60 36.11 36.40 36.60 36.39 35.68 36.41 36.86 38.00 37.54 36.69 35.53 35.24 34.99 35.73 35.73 34.65 34.59 34.18 34.25 33.85 33.43 32.72 32.01 31.20 30.33 30.20 30.51 30.51 30.31 29.76 29.88 29.70 29.51 29.15 28.42
33.84 34.28 34.29 34.26 34.82 34.51 34.56 35.12 35.17 34.94 35.63 35.88 36.18 35.38 34.72 35.70 36.81 35.82 35.82 35.35 36.45 37.40 35.22 33.70 32.36 32.25 32.68 32.80 33.41 32.48 31.86 31.28 30.20 29.83 29.72 29.21 29.19 28.90 28.94 28.83 28.40 27.96 27.48 26.17
33.68 33.69 33.64 33.99 33.98 34.38 34.16 34.76 34.21 33.83 34.80 35.11 34.77 34.63 34.83 35.93 36.09 36.37 35.15 34.84 35.27 34.96 32.63 31.07 30.88 30.68 30.27 30.90 32.16 31.31 30.69 29.85 29.30 29.03 28.36 27.62 26.83 26.75 26.85 26.86 26.73 26.45 25.47 24.92
33.50 33.26 33.51 33.60 33.18 33.75 34.05 33.92 33.97 34.05 33.97 34.08 34.73 35.32 35.00 34.48 35.27 35.63 37.00 36.67 33.96 33.30 31.33 31.39 31.14 30.73 30.85 32.23 31.24 30.58 29.89 28.88 28.13 27.19 25.97 25.85 25.73 25.63 25.68 25.87 25.87 25.98 26.06 26.00
33.54 33.12 33.21 32.96 33.04 33.29 32.50 32.63 33.07 33.20 33.13 33.40 33.51 33.73 34.22 34.78 35.30 32.98 31.77 32.04 32.92 32.36 31.15 30.87 30.95 32.17 32.22 30.15 29.24 28.53 27.44 25.90 24.58 23.73 23.58 23.59 23.66 23.72 23.28 23.20 23.92 24.46 25.09 25.23
32.70 32.48 32.86 32.85 32.23 31.60 31.76 32.24 32.21 32.48 33.02 32.85 33.48 34.06 33.50 32.27 31.59 33.75 34.37 32.30 32.96 32.05 30.88 31.19 32.06 32.60 29.21 26.18 25.03 24.22 23.58 22.94 21.94 21.34 21.20 21.30 20.26 20.38 20.27 19.96 19.76 20.55 20.88 22.09
32.62 32.55 31.58 31.15 31.45 32.57 31.87 31.12 30.04 30.35 31.01 31.76 31.77 32.27 33.40 34.73 34.21 30.71 31.51 31.60 33.18 30.57 29.73 31.66 31.20 29.16 25.07 23.95 23.15 22.55 21.56 20.47 19.98 20.35 19.00 18.66 18.61 17.89 17.95 18.01 17.81 18.07 18.86 19.53
31.25 33.11 33.39 33.03 33.80 32.87 32.24 30.54 31.27 31.03 30.77 29.71 29.42 29.70 29.90 29.99 30.74 30.36 31.16 31.51 28.76 28.35 27.49 27.47 25.67 23.60 22.87 22.29 21.11 19.82 18.34 17.89 17.48 17.56 18.01 17.17 17.13 16.59 16.62 16.47 16.50 16.75 17.02 17.15
30.11 31.41 30.99 30.35 29.85 30.39 30.81 30.59 30.00 29.06 30.83 30.02 27.90 27.91 28.06 28.48 28.77 28.79 28.21 25.85 24.20 22.90 22.77 23.26 22.70 21.46 20.69 19.64 18.45 17.11 16.56 16.38 16.22 17.39 17.23 16.25 16.27 16.46 16.31 16.34 16.18 16.07 15.89 16.24
MSLP
1019.22 1018.52 1018.54 1018.06 1017.70 1017.55 1017.44 1016.12 1015.34 1013.68 1013.06 1012.08 1012.13 1012.80 1013.28 1013.69 1013.82 1013.75 1013.64 1013.58 1013.39 1012.90 1012.38 1011.82 1011.39 1010.84 1010.38 1010.12 1009.71 1009.02 1008.51 1008.40 1008.37 1008.29 1008.21 1008.25 1008.50 1008.25 1008.22 1008.47 1008.36 1008.85 1008.74 1009.07
1019.10 1018.25 1017.97 1017.22 1016.61 1016.55 1016.27 1015.65 1014.68 1013.60 1012.50 1011.90 1012.02 1012.62 1013.05 1013.33 1013.66 1013.72 1013.81 1013.71 1013.72 1013.53 1012.97 1012.70 1012.28 1011.77 1011.17 1010.95 1010.60 1010.04 1009.49 1009.24 1009.08 1008.84 1008.86 1009.02 1009.07 1008.76 1008.84 1008.96 1009.26 1009.68 1009.73 1009.83
1018.84 1018.10 1017.76 1016.52 1014.21 1014.56 1014.37 1014.09 1013.58 1012.75 1011.53 1011.79 1011.91 1012.15 1012.44 1012.82 1013.40 1013.61 1013.76 1013.69 1013.81 1013.74 1013.71 1013.38 1012.96 1012.63 1011.92 1011.53 1011.04 1010.44 1010.33 1010.26 1010.14 1010.03 1009.99 1009.81 1009.49 1009.43 1009.48 1009.57 1009.71 1010.26 1010.59 1010.54
1018.91 1017.88 1016.24 1013.83 1013.71 1013.66 1013.34 1012.66 1012.31 1011.88 1011.66 1011.82 1011.69 1011.70 1012.03 1012.39 1012.76 1013.10 1013.45 1013.71 1013.76 1013.83 1013.87 1013.79 1013.57 1013.15 1012.56 1012.03 1011.69 1011.70 1011.47 1011.15 1010.99 1010.54 1010.56 1010.53 1010.56 1010.61 1010.72 1010.77 1010.96 1011.08 1010.96 1011.02
1018.76 1016.71 1013.96 1012.84 1012.93 1012.89 1012.62 1011.14 1010.70 1010.86 1010.79 1011.34 1011.90 1012.00 1011.22 1011.42 1012.05 1012.48 1012.97 1013.31 1013.65 1013.79 1013.88 1013.79 1013.77 1013.49 1013.09 1012.78 1012.61 1012.40 1012.30 1012.20 1011.98 1011.71 1011.63 1011.49 1011.57 1011.57 1011.67 1011.83 1011.47 1011.33 1011.53 1011.33
1018.66 1016.57 1013.31 1011.43 1011.92 1012.29 1012.28 1010.62 1009.53 1010.17 1010.27 1010.84 1011.71 1011.43 1010.46 1010.89 1011.48 1012.17 1012.82 1013.20 1013.49 1013.78 1013.89 1013.81 1013.78 1013.71 1013.29 1013.23 1013.11 1013.02 1012.99 1012.75 1012.51 1012.23 1012.17 1012.11 1012.15 1012.11 1012.20 1012.17 1012.19 1012.15 1011.84 1011.65
1016.90 1015.05 1011.96 1010.86 1011.68 1012.21 1011.35 1009.38 1009.03 1009.59 1009.88 1010.58 1010.88 1010.15 1010.64 1011.16 1011.72 1012.11 1012.55 1013.03 1013.48 1013.67 1013.61 1013.78 1013.96 1013.79 1013.55 1013.54 1013.63 1013.82 1013.60 1013.42 1013.19 1013.04 1012.95 1012.91 1012.79 1012.82 1012.55 1012.28 1012.12 1012.04 1011.68 1011.70
1015.38 1014.05 1011.34 1010.71 1011.80 1011.05 1008.46 1008.59 1008.73 1009.29 1009.47 1009.87 1009.88 1010.17 1010.67 1010.95 1011.35 1012.01 1012.42 1012.88 1013.31 1013.50 1013.62 1013.87 1014.09 1014.01 1013.87 1013.99 1014.17 1014.09 1013.87 1013.66 1013.55 1013.61 1013.59 1013.38 1013.22 1013.21 1013.09 1012.78 1012.43 1012.37 1012.38 1012.23
1012.52 1010.08 1009.13 1009.37 1008.28 1008.29 1008.17 1007.98 1008.57 1008.87 1009.12 1009.44 1009.65 1009.83 1010.18 1010.58 1011.05 1011.29 1011.67 1012.25 1012.74 1013.14 1013.43 1013.71 1013.94 1014.02 1013.85 1014.06 1014.18 1014.07 1013.94 1013.83 1013.72 1013.70 1013.69 1013.59 1013.40 1013.36 1013.12 1013.06 1013.03 1013.15 1013.15 1013.10
1010.89 1007.74 1008.06 1008.50 1008.12 1008.15 1008.09 1008.01 1008.19 1008.45 1008.62 1009.05 1009.08 1009.27 1009.61 1010.05 1010.37 1010.75 1011.19 1011.52 1011.95 1012.42 1012.73 1012.97 1013.42 1013.78 1013.88 1014.04 1014.18 1014.13 1014.01 1014.04 1014.01 1013.87 1013.76 1013.78 1013.71 1013.74 1013.65 1013.71 1013.54 1013.58 1013.53 1013.34
1009.17 1007.11 1007.66 1007.07 1007.04 1007.00 1007.14 1007.71 1007.94 1008.10 1008.37 1008.51 1008.75 1008.72 1008.95 1009.29 1009.69 1010.10 1010.59 1011.18 1011.61 1011.84 1012.07 1012.31 1012.76 1013.17 1013.52 1013.87 1014.10 1014.14 1014.28 1014.35 1014.28 1014.23 1014.22 1014.13 1014.04 1014.02 1014.12 1014.09 1014.13 1014.15 1013.86 1013.68
1006.47 1005.21 1005.77 1005.39 1005.52 1006.13 1006.59 1006.94 1007.04 1007.45 1007.76 1007.94 1008.28 1008.24 1008.58 1008.76 1009.05 1009.62 1010.12 1010.62 1011.15 1011.51 1011.83 1012.05 1012.39 1012.72 1013.12 1013.54 1013.84 1013.94 1014.05 1014.22 1014.31 1014.40 1014.34 1014.28 1014.18 1014.14 1014.46 1014.54 1014.48 1014.34 1014.10 1014.04
1005.42 1005.04 1005.45 1005.34 1005.38 1005.81 1006.25 1006.17 1006.33 1006.59 1006.83 1007.13 1007.34 1007.71 1007.95 1008.31 1008.65 1009.09 1009.73 1010.29 1010.63 1010.98 1011.37 1011.65 1011.98 1012.32 1012.71 1013.16 1013.49 1013.69 1013.81 1014.05 1014.21 1014.25 1014.17 1014.18 1014.16 1014.24 1014.22 1013.95 1014.12 1014.15 1014.10 1013.97
1004.72 1004.78 1004.92 1004.86 1004.94 1004.98 1005.39 1005.67 1006.17 1006.23 1006.22 1006.42 1006.73 1007.11 1007.30 1007.68 1008.19 1008.64 1008.99 1009.48 1010.18 1010.63 1011.04 1011.39 1011.66 1011.91 1012.31 1012.80 1013.13 1013.47 1013.79 1013.96 1014.02 1014.04 1014.13 1014.16 1014.20 1014.34 1014.21 1014.16 1013.94 1013.84 1013.87 1013.90
1003.84 1004.09 1003.86 1003.86 1004.15 1004.35 1004.82 1005.24 1005.69 1005.89 1005.73 1005.80 1006.13 1006.41 1006.93 1007.15 1007.20 1007.58 1008.42 1009.18 1009.83 1010.25 1010.58 1010.99 1011.42 1011.79 1012.22 1012.67 1013.04 1013.31 1013.54 1013.66 1013.86 1014.03 1014.21 1014.26 1014.29 1014.34 1014.36 1014.30 1014.10 1013.82 1013.55 1013.32
1003.02 1003.17 1003.28 1003.64 1003.67 1003.62 1004.08 1004.50 1004.68 1004.52 1004.97 1005.25 1005.56 1006.11 1006.26 1006.49 1006.81 1007.33 1007.82 1008.38 1009.14 1009.70 1010.12 1010.57 1010.87 1011.45 1012.10 1012.56 1012.95 1013.26 1013.48 1013.68 1013.85 1013.96 1014.14 1014.18 1014.29 1014.29 1014.21 1014.07 1013.86 1013.65 1013.38 1013.16
1002.86 1002.85 1002.95 1002.76 1002.84 1002.95 1003.14 1003.47 1003.66 1003.75 1003.82 1004.07 1004.00 1004.60 1005.33 1006.22 1006.71 1006.91 1007.46 1008.18 1008.51 1009.01 1009.70 1010.22 1010.69 1011.33 1011.91 1012.42 1012.81 1013.04 1013.25 1013.51 1013.75 1014.01 1014.04 1014.06 1014.09 1014.01 1013.96 1013.85 1013.62 1013.37 1013.10 1012.97
1001.53 1001.52 1002.02 1002.05 1002.08 1002.59 1002.77 1003.06 1002.97 1003.01 1003.11 1003.08 1003.45 1003.82 1004.37 1004.97 1005.16 1005.88 1006.61 1007.55 1008.59 1009.14 1009.37 1009.94 1010.58 1011.26 1011.77 1012.19 1012.61 1012.87 1013.08 1013.29 1013.49 1013.67 1013.79 1013.82 1013.79 1013.82 1013.76 1013.61 1013.41 1013.17 1012.85 1012.59
1000.46 1000.76 1001.52 1001.54 1001.71 1002.13 1002.19 1002.44 1002.73 1002.57 1002.64 1003.00 1003.49 1003.34 1003.26 1003.75 1004.49 1005.32 1006.40 1007.19 1007.83 1008.65 1009.35 1009.77 1010.54 1011.20 1011.58 1012.00 1012.43 1012.75 1013.00 1013.25 1013.44 1013.63 1013.72 1013.70 1013.68 1013.63 1013.54 1013.38 1013.12 1012.90 1012.70 1012.46
1000.44 1000.36 1000.76 1001.30 1001.54 1001.73 1001.76 1001.77 1002.14 1002.63 1002.48 1002.66 1002.98 1003.44 1003.31 1003.53 1004.26 1004.94 1005.66 1006.42 1006.85 1007.57 1008.71 1009.63 1010.30 1010.75 1011.20 1011.71 1012.16 1012.49 1012.79 1013.10 1013.35 1013.50 1013.56 1013.51 1013.36 1013.22 1013.15 1013.06 1012.91 1012.68 1012.50 1012.44
1000.12 1000.19 1000.41 1000.98 1001.28 1001.51 1001.80 1001.85 1001.86 1001.99 1002.13 1002.36 1002.66 1002.98 1003.42 1003.53 1004.02 1004.56 1005.25 1006.08 1007.16 1007.81 1008.52 1009.41 1010.31 1010.83 1011.24 1011.61 1011.95 1012.30 1012.64 1012.96 1013.18 1013.29 1013.39 1013.41 1013.33 1013.17 1013.02 1012.84 1012.66 1012.45 1012.29 1012.16
999.98 1000.03 1000.47 1000.68 1001.07 1001.37 1001.57 1001.78 1001.80 1001.94 1002.02 1002.07 1002.36 1002.78 1003.31 1003.67 1004.10 1004.60 1004.94 1005.47 1006.87 1007.85 1008.52 1009.15 1009.99 1010.61 1011.08 1011.55 1011.89 1012.10 1012.49 1012.94 1013.22 1013.38 1013.40 1013.36 1013.30 1013.19 1013.00 1012.79 1012.48 1012.17 1011.89 1011.60
1000.02 1000.24 1000.54 1000.63 1000.96 1001.41 1001.68 1001.88 1001.94 1002.03 1002.00 1002.40 1002.36 1002.50 1003.12 1003.39 1003.64 1004.25 1005.09 1005.94 1006.56 1007.48 1008.29 1009.18 1009.70 1010.22 1010.77 1011.38 1011.76 1012.16 1012.55 1012.94 1013.22 1013.41 1013.45 1013.50 1013.48 1013.35 1013.11 1012.77 1012.41 1012.06 1011.70 1011.27
999.94 1000.37 1000.54 1000.86 1001.24 1001.53 1001.61 1001.64 1001.83 1002.01 1002.13 1002.37 1002.38 1002.68 1003.22 1003.77 1004.22 1004.48 1004.92 1005.78 1006.49 1007.32 1008.07 1008.92 1009.63 1010.10 1010.76 1011.36 1011.90 1012.36 1012.78 1013.06 1013.35 1013.52 1013.58 1013.57 1013.59 1013.39 1013.11 1012.82 1012.50 1012.17 1011.68 1011.11
999.42 999.99 1000.39 1000.75 1001.00 1001.19 1001.42 1001.67 1001.78 1001.99 1002.32 1002.73 1002.96 1003.10 1003.30 1003.63 1003.83 1004.95 1005.39 1006.04 1006.60 1007.72 1008.43 1008.96 1009.64 1010.47 1011.00 1011.54 1012.00 1012.41 1012.88 1013.22 1013.39 1013.47 1013.56 1013.54 1013.42 1013.31 1013.05 1012.74 1012.46 1012.10 1011.49 1010.98
999.67 999.48 999.88 1000.38 1000.56 1000.71 1001.08 1001.56 1001.68 1001.91 1002.29 1002.69 1003.04 1003.37 1003.90 1004.42 1004.66 1005.20 1005.97 1006.75 1007.63 1007.98 1008.83 1009.66 1010.40 1010.89 1011.33 1011.71 1012.21 1012.66 1013.05 1013.28 1013.36 1013.40 1013.47 1013.49 1013.30 1013.12 1012.78 1012.49 1012.18 1011.66 1011.15 1010.79
999.59 999.58 1000.11 1000.43 1000.49 1000.48 1001.06 1001.16 1001.35 1001.82 1002.33 1002.65 1003.03 1003.63 1004.28 1004.93 1005.38 1005.87 1006.42 1007.26 1008.05 1008.58 1009.34 1010.17 1010.81 1011.33 1011.63 1012.08 1012.57 1012.90 1013.18 1013.28 1013.29 1013.30 1013.34 1013.33 1013.16 1012.85 1012.52 1012.13 1011.63 1011.20 1010.83 1010.36
Wind_Speed
10 11 7 8 9 8 7 7 6 2 7 11 9 4 3 5 5 5 7 8 10 12 13 14 14 14 14 14 14 13 13 12 11 8 9 10 8 8 9 8 8 5 4 3
4 3 8 9 12 11 12 12 14 15 16 8 6 4 5 1 3 4 4 5 8 8 11 11 13 13 12 12 12 11 13 13 12 12 11 10 9 9 9 9 9 8 8 7
4 2 4 8 8 12 6 7 6 8 3 3 5 7 6 5 6 3 3 3 4 5 6 7 9 10 11 11 10 12 12 12 11 11 10 10 9 10 10 10 9 9 8 7
4 3 3 3 2 4 11 11 13 14 12 8 8 5 6 7 8 7 5 3 1 2 4 5 6 6 7 9 10 9 10 11 11 10 9 9 9 9 9 7 7 5 6 5
4 4 7 3 6 7 7 5 13 18 15 11 6 6 14 13 12 9 7 5 3 1 2 2 4 5 6 7 7 8 9 9 8 8 7 8 8 8 6 6 6 6 5 5
0 4 5 3 5 5 3 7 9 12 9 10 8 6 4 3 9 10 8 6 5 5 3 2 2 3 5 6 6 8 8 7 7 7 8 8 7 6 5 5 4 3 4 5
6 6 9 4 9 7 3 2 7 9 8 12 9 9 4 3 6 7 7 8 7 6 5 3 2 1 3 4 5 4 4 5 6 7 7 6 6 5 5 6 5 5 6 6
4 4 9 12 9 7 1 3 6 9 11 13 15 7 9 6 8 9 8 7 8 6 6 5 4 4 3 2 2 2 2 4 5 5 4 4 5 4 4 4 5 5 5 5
10 6 3 22 5 15 2 4 7 10 10 14 12 13 12 9 11 11 11 9 8 8 6 5 5 5 4 4 2 0 1 2 4 4 4 4 5 5 4 5 5 5 4 5
3 7 16 14 19 13 9 12 7 10 10 12 15 13 13 13 11 10 10 10 10 9 8 8 7 6 5 3 2 2 2 3 3 3 4 4 3 3 3 3 3 3 4 5
10 21 14 19 17 17 15 14 13 12 13 15 14 14 14 12 13 12 11 10 9 9 9 9 8 8 7 6 5 4 4 3 1 1 2 2 3 3 3 2 4 5 4 5
12 18 12 16 8 6 12 14 14 13 12 15 15 16 13 12 11 11 11 10 10 10 9 9 9 8 8 8 7 5 4 3 2 2 1 2 4 4 2 3 6 5 4 5
24 23 17 18 16 10 13 12 12 12 13 11 13 14 15 13 11 11 10 11 11 11 10 9 9 8 7 8 7 6 4 3 2 3 2 2 4 4 5 3 2 2 4 7
20 20 18 20 14 10 10 12 7 9 10 11 12 9 12 13 9 12 13 12 10 9 9 9 9 9 7 8 7 5 4 3 3 2 2 2 3 3 4 5 6 5 4 7
22 18 20 18 15 16 11 9 10 12 13 11 11 11 11 13 14 13 11 11 10 10 9 9 9 7 7 7 6 5 4 3 2 2 3 3 2 3 4 5 6 6 7 6
9 14 16 17 18 17 12 13 14 14 13 12 9 12 13 14 12 11 12 13 12 11 11 10 10 8 6 5 5 3 3 4 2 3 4 3 3 4 4 5 5 6 6 6
11 15 14 12 13 16 15 14 14 14 13 13 15 12 12 13 11 12 12 12 12 11 11 10 9 7 7 5 5 3 4 4 5 4 4 4 4 4 4 5 6 6 7 7
16 19 15 15 12 12 12 13 12 14 14 13 11 10 13 15 16 15 14 12 9 8 9 9 7 6 5 6 7 6 5 4 4 3 3 4 4 4 5 6 6 7 8 8
13 15 15 13 12 12 11 11 12 12 10 10 10 13 13 14 13 12 13 12 12 11 9 8 9 8 8 8 7 5 4 4 4 3 4 4 4 4 5 6 7 8 8 8
8 8 7 8 8 10 11 8 8 8 7 8 9 9 10 10 11 13 14 14 12 8 10 8 8 8 8 9 10 5 5 5 5 4 4 4 5 5 6 9 9 8 8 8
8 6 6 7 6 6 8 7 6 8 7 8 10 11 11 11 12 13 14 10 10 11 10 13 7 5 5 7 7 5 5 4 4 4 4 4 5 6 6 7 8 8 7 8
5 5 5 5 5 5 5 5 5 5 6 8 8 8 10 11 12 11 9 9 9 15 9 8 7 9 7 10 5 5 4 3 2 2 3 4 5 6 7 7 8 8 8 8
4 3 4 4 4 3 1 3 4 5 6 7 8 10 10 8 9 11 9 7 8 12 8 7 11 14 12 5 4 4 3 2 1 2 3 3 5 6 7 8 8 9 9 9
5 5 3 3 3 3 4 3 4 4 4 4 6 8 8 8 5 3 7 13 17 16 9 9 12 14 11 5 4 4 3 2 1 1 3 5 4 5 6 7 8 8 9 11
5 5 5 5 5 4 3 3 4 3 3 4 5 6 6 6 5 6 8 9 20 12 9 15 15 14 6 5 4 4 3 2 1 2 3 3 4 5 6 7 8 9 9 9
7 5 4 6 3 4 4 4 4 4 5 5 4 5 5 4 8 9 8 12 9 13 9 8 7 6 5 5 5 4 3 1 0 1 3 3 5 6 6 7 8 8 8 9
1 3 2 3 3 3 4 5 5 6 6 6 6 6 7 7 9 10 12 10 9 9 8 7 6 6 5 5 4 3 2 1 0 1 2 4 5 6 7 8 7 8 8 9
Wind_Direction
263 261 239 252 260 247 219 248 230 134 253 280 291 302 334 324 327 341 354 4 3 360 5 8 15 21 28 30 23 32 48 45 46 48 53 52 52 58 65 59 56 46 66 84
272 302 236 273 266 251 248 252 257 264 274 259 287 229 230 239 306 319 337 2 360 3 4 7 7 8 22 29 33 35 45 47 45 50 52 51 41 50 61 61 60 52 46 51
268 59 318 274 237 202 212 216 227 227 241 182 222 231 241 214 206 235 289 342 359 2 3 3 1 356 13 21 26 38 41 41 45 50 52 51 56 56 52 53 55 54 49 49
288 285 243 89 142 231 230 252 230 253 249 236 255 258 260 229 218 201 201 219 293 351 356 1 357 10 20 23 37 42 46 41 32 39 42 49 57 55 55 53 60 66 57 56
286 265 311 203 201 198 202 265 212 231 251 234 229 290 268 232 213 210 199 199 203 246 287 352 11 10 20 35 43 49 45 46 45 46 53 52 49 46 46 48 35 47 42 45
294 280 260 87 152 147 135 261 191 201 218 207 175 242 253 186 203 196 193 195 196 205 213 255 20 4 48 44 39 39 28 30 37 44 47 52 50 52 49 51 51 40 47 36
218 253 271 188 143 146 221 59 173 204 216 179 199 222 108 153 193 202 199 195 193 196 213 200 204 317 39 49 56 25 32 44 42 40 40 39 46 29 30 33 36 28 25 25
186 237 272 147 121 208 137 164 187 199 213 208 223 219 215 199 197 200 203 194 200 205 203 199 203 214 178 119 13 6 37 65 58 43 46 45 54 58 43 28 36 34 11 7
219 227 67 187 225 220 234 188 196 212 214 217 228 232 224 219 213 206 204 203 202 209 209 203 207 222 211 161 178 187 147 69 59 63 45 40 38 28 21 26 22 15 5 351
258 222 235 217 244 248 240 236 223 219 221 208 222 226 229 227 224 223 220 208 196 202 214 213 207 211 234 185 189 197 126 73 49 46 32 29 28 23 3 22 9 340 334 326
255 273 264 257 237 248 246 241 246 239 226 222 222 231 223 222 223 220 215 212 210 214 218 221 204 205 199 198 199 200 184 170 155 65 31 8 4 351 335 350 360 330 324 324
247 259 252 281 276 227 235 237 239 240 235 233 227 231 226 229 220 212 210 204 207 218 226 230 217 207 198 196 199 200 199 197 188 199 275 327 320 309 153 298 335 332 340 345
249 263 270 269 291 265 263 256 240 227 234 238 227 231 228 227 220 209 206 202 207 213 217 220 214 212 198 192 197 202 212 208 232 256 274 320 321 322 316 320 328 319 352 329
235 254 265 256 260 278 241 262 252 245 236 227 240 222 224 218 206 203 204 205 202 202 206 209 206 207 195 192 196 212 223 230 261 275 296 309 307 300 313 312 317 318 311 315
241 230 241 265 277 265 254 246 238 244 242 230 221 224 213 214 207 199 195 192 190 195 196 192 192 198 184 184 198 209 215 224 249 289 280 281 276 281 280 282 292 301 311 307
241 245 242 236 248 258 256 234 233 243 242 244 224 226 228 222 214 193 185 178 177 192 194 192 195 172 154 153 172 189 215 214 227 261 265 254 253 262 270 278 290 291 295 302
237 250 239 240 234 247 243 237 233 239 239 234 232 224 204 211 204 193 187 188 192 188 188 190 186 148 149 165 177 198 209 227 226 239 244 245 254 266 276 280 283 288 291 292
227 248 255 252 255 250 247 239 233 238 238 237 234 209 199 197 202 195 186 175 178 181 180 175 143 144 165 196 197 205 208 208 202 215 242 246 257 267 270 277 282 287 294 300
221 233 247 249 245 244 247 248 239 235 235 232 219 214 203 202 200 181 162 165 171 177 189 148 154 177 190 187 183 192 204 207 209 219 243 267 269 272 280 282 287 292 298 302
218 208 223 236 227 231 245 239 243 249 233 218 214 210 199 191 181 170 169 184 185 172 147 151 168 179 177 176 185 190 197 205 213 229 241 258 268 280 283 282 286 291 299 301
208 190 196 203 223 233 239 243 234 232 224 204 201 203 207 191 179 171 168 174 171 149 148 147 163 165 164 167 177 182 187 199 216 237 255 273 284 282 287 289 288 289 288 288
190 176 190 183 201 232 234 238 229 233 209 196 202 198 189 178 176 173 172 170 151 156 145 155 166 169 168 170 166 170 177 197 235 262 272 281 287 292 292 291 288 292 289 288
148 162 173 176 188 233 285 242 234 223 211 211 195 186 189 182 169 161 163 153 146 159 152 159 161 165 162 146 146 148 157 177 233 278 294 295 291 294 294 295 297 298 296 291
159 175 173 152 155 192 237 225 214 218 225 216 193 175 159 152 138 124 123 146 145 145 146 151 160 156 139 129 127 131 144 151 198 295 287 295 297 294 296 298 297 297 296 297
158 154 161 173 199 225 216 199 165 181 179 195 171 160 167 176 166 148 136 139 145 138 140 149 147 138 126 130 138 144 147 156 195 274 301 300 305 304 300 299 295 294 295 296
182 180 182 198 209 187 186 177 206 177 167 160 147 146 135 116 123 125 130 133 133 126 123 125 129 129 127 133 132 136 136 141 202 311 313 305 303 300 300 297 292 293 297 295
180 168 184 218 215 202 204 194 175 180 186 173 144 138 130 127 133 127 126 127 128 127 124 123 124 129 129 128 130 119 139 147 16 309 308 300 297 297 295 292 296 297 294 290